Flag for U.S.A. Weather past 2 weeks in Fort Wayne, Indiana, U.S.A.

Now
63 °F

Passing clouds.


Feels Like: 63 °F
Forecast: 51 / 67 °F
Wind: 18 mph from West

Location: Fort Wayne International Airport

Current Time: Sep 21, 2014 at 8:20:25 AM

Latest Report: Sep 21, 2014 at 7:54 AM


Visibility: 10 mi

Pressure: 29.76 "Hg

Humidity: 87%

Dew point: 59 °F

Location of Fort WayneLocation

Historic Weather in Fort Wayne — Graph

°F

Fort Wayne temperature yesterday

Maximum temperature yesterday: 79 °F (at 2:54 PM)
Minimum temperature yesterday: 50 °F (at 5:54 AM)
Average temperature yesterday: 63 °F

Past Weeks' High & Low Weather Summary

 TemperatureHumidityPressure
High79 °F (Sep 20, 2:54 PM)97% (Sep 6, 6:54 AM)30.35 "Hg (Sep 6, 6:54 AM)
Low43 °F (Sep 17, 5:54 AM)43% (Sep 8, 6:54 PM)29.64 "Hg (Sep 10, 7:01 PM)
Average59 °F79%30.10 "Hg
* Reported Sep 6 6:54 AM — Sep 21 6:54 AM, Fort Wayne, Weather by CustomWeather, © 2014

Note: Actual official high and low records may vary slightly from our data, if they occured in-between our weather recording intervals... More about our weather records

Advertising

Fort Wayne weather history for previous 24 hours

 ConditionsComfort  
Time TempWeatherWind HumidityBarometerVisibility
6:54 AM
Sep 21
67 °FPassing clouds.15 mph87%29.73 "Hg10 mi
5:54 AM69 °FMostly cloudy.17 mph90%29.71 "Hg8 mi
4:54 AM69 °FMostly cloudy.15 mph93%29.71 "Hg7 mi
3:54 AM68 °FPassing clouds.15 mph93%29.73 "Hg7 mi
3:03 AM68 °FLight rain. Mostly cloudy.14 mph93%29.76 "Hg8 mi
2:54 AM68 °FLight rain. Mostly cloudy.13 mph93%29.75 "Hg7 mi
1:54 AM67 °FMostly cloudy.12 mph93%29.78 "Hg10 mi
12:54 AM66 °FLight rain. Overcast.3 mph93%29.82 "Hg9 mi
11:54 PM
Sep 20
66 °FOvercast.7 mph93%29.83 "Hg10 mi
10:54 PM65 °FPassing clouds.9 mph94%29.85 "Hg10 mi
9:54 PM64 °FMostly cloudy.6 mph94%29.87 "Hg10 mi
8:54 PM65 °FThunderstorms. Overcast.14 mph94%29.88 "Hg9 mi
7:54 PM66 °FThunderstorms. Cloudy.10 mph93%29.89 "Hg8 mi
6:54 PM72 °FThunderstorms. Mostly cloudy.16 mph66%29.90 "Hg10 mi
5:54 PM77 °FPartly sunny.15 mph60%29.84 "Hg10 mi
4:54 PM78 °FPartly sunny.21 mph58%29.85 "Hg10 mi
3:54 PM79 °FPartly sunny.22 mph56%29.89 "Hg10 mi
2:54 PM79 °FBroken clouds.15 mph58%29.91 "Hg10 mi
1:54 PM77 °FPartly sunny.17 mph62%29.93 "Hg10 mi
8:54 AM58 °FPartly sunny.10 mph87%30.02 "Hg9 mi
Weather by CustomWeather, © 2014

See weather overviewHow to use our weather pages